Showing default

ORBASTRO-TR5, 63236

Orbit data source: Space-Track

ORBASTRO-TR5, 63236 is a UK payload satellite in SSO that was launched on Sat, 15 Mar 2025 UTC via an FALCON 9 launch vehicle from the Air Force Western Test Range (AFWTR). Payload-class satellites include a variety of spacecraft equipped with specific instruments for various scientific and technological missions. These include communications satellites like Starlink; space stations such as the ISS; scientific satellites like the Hubble; Earth observation satellites from companies like Planet Labs, Umbra, and HawkEye 360; GPS; miniature CubeSats for education and research; and military/defense satellites.

Loading next visibility...
Identifier
63236, 2025-052AC
Orbit
SSO
Last TLE update
23 hours ago
Origin
Manufacturer
OrbAstro
Mission
Operational Commercial Technology
Bus & Motor
CUBESAT 6U, Unknown motor
Mass
~10 kg wet, ~10 kg dry
Launch date (UTC)
2025-03-15 (2 months ago)
Launch vehicle
FALCON 9
Launch site
Air Force Western Test Range (AFWTR)
Object type
Payload
Rocket body
Debris
Shape & HBR
Box + 2 Pan, 2 m
Radar Cross Section
0.892 m², Medium (>0.1 m² and < 1m²)

Expand to show TLE details & history

TLE from 23 hours ago
0 ORBASTRO-TR5
1 63236U 25052AC  25132.64585344  .00005152  00000-0  26320-3 0  9995
2 63236  97.4327  26.8350 0009502 118.5655 241.6535 15.17081831  8992
Epoch: 2025-05-12T15:30Z
Definitive object data (Epoch: 2025-05-12T15:30:01.737Z)
Latitude
-0.0001°
Longitude
-76.32818°
Altitude
520.866 km
Speed
7.601 km/s
True Right ascension
01h 47m 20s
True Declination
0° 00' 00"
Sunlit
Object was in daylight at TLE epoch
Visualization TLE readout
Latitude
9.06511°
Longitude
105.79416°
Altitude
513.287 km
Speed
7.61 km/s
Apparent Right ascension
12h 39m 10s
Apparent Declination
-15° 29' 58"
Sunlit
Object is in full shadow
Visualization observer readout
Local Sidereal Time
22:50:37
Azimuth
308.157° NW
Elevation
-56.018°
Doppler factor
1
Orbital elements
Apogee altitude
518.183 km
Perigee altitude
505.09 km
Semi-major axis
6,889.773 km
Eccentricity
0.0009502
Inclination
97.4327°
RAAN
26.835°
Arg. of periapsis
118.5655°
True anomaly
241.55773°
Mean anomaly
241.6535°
Eccentric anomaly
241.60561°
Mean motion
3.79521 °/min
BSTAR
0.0002632
Orbital period
94.86 mins
Loading maneuver chart data...
Loading SW <> Apogee altitude chart data...
Loading historical data...
Loading historical data...
Loading historical data...
Loading historical data...
Loading historical data...
Loading historical data...
Loading historical data...

ORBASTRO-TR5 Visibility forecast

Observer location: undefined°, undefined°

Span
Click to sort rows by Start time (UTC) header in descending order
Start Az.
Max El. time (UTC)
Max El. Az.
Max El.
End time (UTC)
End Az.
7 mins2025-05-13 16:56:43.055Z167.075° S2025-05-13 17:00:43.055Z346.613° N43.131°2025-05-13 17:03:43.055Z347.972° N
5 mins2025-05-14 06:03:43.055Z356.738° N2025-05-14 06:05:43.055Z311.9° NW37.805°2025-05-14 06:08:43.055Z212.03° SW
|